Regional Weather Roundup
Issued by NWS Little Rock, AR

Home | Current Version | Previous Version | Text Only | Print | Product List | Glossary On
Versions: 1 2 3 4 5 6 7 8 9 10 11 12 13 14 15 16 17 18 19 20 21 22 23 24 25 26 27 28 29 30 31 32 33 34 35 36 37 38 39 40 41 42 43 44 45 46 47 48 49 50
000
ASUS44 KLZK 241005
RWRLZK

WEATHER ROUNDUP FOR ARKANSAS
NATIONAL WEATHER SERVICE LITTLE ROCK AR
500 AM CDT TUE MAY 24 2016

NOTE: "FAIR" INDICATES FEW OR NO CLOUDS BELOW 12,000 FEET WITH NO
SIGNIFICANT WEATHER AND/OR OBSTRUCTIONS TO VISIBILITY.

ARZ001-003-010-029-241100-
NORTHWEST ARKANSAS

CITY           SKY/WX    TMP DP  RH WIND       PRES   REMARKS
FAYETTEVILLE   CLOUDY    65  65 100 CALM      29.93R
FORT SMITH     CLOUDY    68  64  87 NE6       29.91R
HARRISON       CLOUDY    65  61  87 SE7       29.96R
BENTONVILLE    CLOUDY    64  61  88 S3        29.94R
ROGERS           N/A     63  62  97 SE7       29.94R
SILOAM SPGS    CLOUDY    64  55  72 SE6       29.93R
HIGHFILL       CLOUDY    66  64  93 SE5       29.92S
$$

ARZ004-005-016-241100-
NORTH CENTRAL ARKANSAS

CITY           SKY/WX    TMP DP  RH WIND       PRES   REMARKS
BATESVILLE     CLOUDY    66  59  77 SE3       29.97S
FLIPPIN        CLOUDY   N/A N/A N/A CALM      29.93R
MTN HOME       CLOUDY    63  61  93 E5        29.95R
$$

ARZ040-041-241100-
WEST CENTRAL ARKANSAS

CITY           SKY/WX    TMP DP  RH WIND       PRES   REMARKS
MENA           CLOUDY    73  68  83 S3        29.95S
MOUNT IDA      CLOUDY    73  63  70 VRB3      29.93R
$$

ARZ009-017-025-026-028-241100-
NORTHEAST ARKANSAS

CITY           SKY/WX    TMP DP  RH WIND       PRES   REMARKS
CORNING          N/A     66  57  72 SE5       29.98S
JONESBORO      CLOUDY    67  57  70 S3        29.98F
NEWPORT        CLEAR     65  58  78 S6        29.98F
WALNUT RIDGE   CLOUDY    66  57  72 CALM      29.98R
BLYTHEVILLE    CLOUDY    68  56  65 S7        30.00S
$$

ARZ022-023-033-042-044-241100-
CENTRAL ARKANSAS

CITY           SKY/WX    TMP DP  RH WIND       PRES   REMARKS
LITTLE ROCK    PTCLDY    65  61  87 CALM      29.97R
N LITTLE ROCK    N/A     66  60  80 CALM      29.95R
JACKSONVILLE   CLEAR     62  61  99 CALM      29.96R
SEARCY         PTCLDY    62  61  96 CALM      29.98S
HOT SPRINGS    CLOUDY    72  61  68 S6        29.97R
RUSSELLVILLE   CLOUDY    68  63  84 E3        29.95R
CLINTON        MOCLDY    61  61 100 CALM      29.98R
$$

ARZ036-241100-
EAST ARKANSAS

CITY           SKY/WX    TMP DP  RH WIND       PRES   REMARKS
WEST MEMPHIS   MOCLDY    66  56  70 S3        29.99R
$$

ARZ050-053-066-070-073-241100-
SOUTHWEST ARKANSAS

CITY           SKY/WX    TMP DP  RH WIND       PRES   REMARKS
ARKADELPHIA    PTSUNNY   66  66 100 CALM      29.97R
CAMDEN         CLOUDY    64  59  82 CALM      29.96R
TEXARKANA      PTCLDY    68  65  90 E3        29.95R
EL DORADO      CLOUDY    65  63  93 CALM      29.97R
DE QUEEN       CLOUDY    71  66  84 SE5       29.91F
$$

ARZ056-057-069-241100-
SOUTHEAST ARKANSAS

CITY           SKY/WX    TMP DP  RH WIND       PRES   REMARKS
PINE BLUFF     CLEAR     64  60  87 CALM      29.98R
STUTTGART      CLEAR     66  57  72 SE6       29.98S
MONTICELLO     CLEAR     63  58  83 CALM      29.98R

$$





USA.gov is the U.S. government's official web portal to all federal, state and local government web resources and services.